Location: downtown San Diego
(32.7310°N, 117.1990°W)
Time: 23:51:16
(UTC-07:00)

SeaSat 1 - Pass Details

Date: 19 May 2017
Orbit: 745 x 747 km, 108.0° (Epoch: 24 July)

Event Time Altitude Azimuth Distance (km) Brightness Sun altitude
Exits shadow 23:38:58 27° 14° (NNE) 1,405 4.2 -34.9°
Drops below altitude 10° 23:41:32 10° 353° (N) 2,265 5.7 -35.1°
Sets 23:43:55 0° 346° (NNW) 3,192 6.7 -35.2°
